• In Belgium
  • List of Countries
  • For 7 days
  • Water Temperature
  • Satellite Maps
  • Weather Map
  • Weather Widgets
  • user-avatar
    Login

    Hourly Weather Tirana

    Today, 24 January, Wednesday

    Time Temperature Precipitation Wind Pressure Humidity
    00:00 +2°C° 0 mm 5 mps 760 mmHg 67%
    01:00 +2°C° 0 mm 5 mps 761 mmHg 67%
    02:00 +1°C° 0 mm 5 mps 761 mmHg 67%
    03:00 +1°C° 0 mm 5 mps 761 mmHg 67%
    04:00 +1°C° 0 mm 5 mps 762 mmHg 67%
    05:00 +1°C° 0 mm 5 mps 762 mmHg 67%
    06:00 +1°C° 0 mm 5 mps 762 mmHg 66%
    07:00 +1°C° 0 mm 5 mps 763 mmHg 66%
    08:00 +2°C° 0 mm 5 mps 763 mmHg 61%
    09:00 +5°C° 0 mm 4 mps 763 mmHg 56%
    10:00 +7°C° 0 mm 4 mps 764 mmHg 51%
    11:00 +7°C° 0 mm 4 mps 764 mmHg 48%
    12:00 +9°C° 0 mm 3 mps 763 mmHg 45%
    13:00 +10°C° 0 mm 3 mps 763 mmHg 42%
    14:00 +10°C° 0 mm 3 mps 763 mmHg 46%
    15:00 +9°C° 0 mm 3 mps 763 mmHg 49%
    16:00 +9°C° 0 mm 3 mps 763 mmHg 53%
    17:00 +7°C° 0 mm 3 mps 764 mmHg 55%
    18:00 +5°C° 0 mm 3 mps 764 mmHg 58%
    19:00 +4°C° 0 mm 3 mps 764 mmHg 60%
    20:00 +4°C° 0 mm 3 mps 764 mmHg 60%
    21:00 +3°C° 0 mm 3 mps 764 mmHg 60%
    22:00 +3°C° 0 mm 3 mps 765 mmHg 60%
    23:00 +3°C° 0 mm 3 mps 765 mmHg 59%

    Tomorrow, 25 January, Thursday

    Time Temperature Precipitation Wind Pressure Humidity
    00:00 +4°C° 0 mm 2 mps 764 mmHg 59%
    01:00 +4°C° 0 mm 2 mps 764 mmHg 58%
    02:00 +4°C° 0 mm 2 mps 764 mmHg 57%
    03:00 +4°C° 0 mm 2 mps 764 mmHg 55%
    04:00 +4°C° 0 mm 2 mps 764 mmHg 54%
    05:00 +4°C° 0 mm 2 mps 764 mmHg 52%
    06:00 +4°C° 0 mm 2 mps 763 mmHg 50%
    07:00 +4°C° 0 mm 2 mps 763 mmHg 49%
    08:00 +6°C° 0 mm 2 mps 763 mmHg 44%
    09:00 +8°C° 0 mm 1 mps 763 mmHg 39%
    10:00 +10°C° 0 mm 1 mps 763 mmHg 35%
    11:00 +11°C° 0 mm 1 mps 763 mmHg 34%
    12:00 +12°C° 0 mm 1 mps 762 mmHg 33%
    13:00 +13°C° 0 mm 1 mps 762 mmHg 33%
    14:00 +12°C° 0 mm 1 mps 762 mmHg 39%
    15:00 +11°C° 0 mm 1 mps 761 mmHg 45%
    16:00 +10°C° 0 mm 1 mps 761 mmHg 50%
    17:00 +9°C° 0 mm 1 mps 761 mmHg 52%
    18:00 +8°C° 0 mm 1 mps 761 mmHg 53%
    19:00 +7°C° 0 mm 1 mps 761 mmHg 54%
    20:00 +7°C° 0 mm 1 mps 761 mmHg 53%
    21:00 +7°C° 0 mm 1 mps 761 mmHg 53%
    22:00 +7°C° 0 mm 1 mps 761 mmHg 52%
    23:00 +6°C° 0 mm 2 mps 761 mmHg 52%

    Day after tomorrow, 26 January, Friday

    Time Temperature Precipitation Wind Pressure Humidity
    00:00 +6°C° 0 mm 2 mps 761 mmHg 51%
    01:00 +6°C° 0 mm 2 mps 760 mmHg 51%
    02:00 +6°C° 0 mm 2 mps 760 mmHg 50%
    03:00 +5°C° 0 mm 2 mps 760 mmHg 49%
    04:00 +5°C° 0 mm 2 mps 759 mmHg 49%
    05:00 +5°C° 0 mm 2 mps 759 mmHg 48%
    06:00 +5°C° 0 mm 2 mps 759 mmHg 47%
    07:00 +4°C° 0 mm 3 mps 759 mmHg 47%
    08:00 +7°C° 0 mm 2 mps 759 mmHg 44%
    09:00 +9°C° 0 mm 2 mps 759 mmHg 41%
    10:00 +12°C° 0 mm 2 mps 759 mmHg 37%
    11:00 +12°C° 0 mm 2 mps 759 mmHg 39%
    12:00 +12°C° 0 mm 3 mps 759 mmHg 40%
    13:00 +12°C° 0 mm 3 mps 758 mmHg 41%
    14:00 +13°C° 0 mm 2 mps 758 mmHg 47%
    15:00 +12°C° 0 mm 2 mps 758 mmHg 53%
    16:00 +12°C° 0 mm 2 mps 758 mmHg 59%
    17:00 +10°C° 0 mm 3 mps 758 mmHg 61%
    18:00 +9°C° 0 mm 3 mps 759 mmHg 63%
    19:00 +8°C° 0 mm 3 mps 759 mmHg 65%
    20:00 +7°C° 0 mm 3 mps 759 mmHg 64%
    21:00 +7°C° 0 mm 3 mps 759 mmHg 64%
    22:00 +7°C° 0 mm 3 mps 759 mmHg 63%
    23:00 +7°C° 0 mm 3 mps 759 mmHg 63%

    27 January, Saturday

    Time Temperature Precipitation Wind Pressure Humidity
    00:00 +6°C° 0 mm 4 mps 759 mmHg 63%
    01:00 +5°C° 0 mm 4 mps 759 mmHg 63%
    02:00 +5°C° 0 mm 4 mps 759 mmHg 63%
    03:00 +5°C° 0 mm 4 mps 759 mmHg 63%
    04:00 +5°C° 0 mm 4 mps 759 mmHg 64%
    05:00 +5°C° 0 mm 4 mps 759 mmHg 63%
    06:00 +5°C° 0 mm 4 mps 759 mmHg 63%
    07:00 +5°C° 0 mm 4 mps 760 mmHg 62%
    08:00 +8°C° 0 mm 3 mps 760 mmHg 59%
    09:00 +10°C° 0 mm 3 mps 760 mmHg 55%
    10:00 +12°C° 0 mm 3 mps 760 mmHg 51%
    11:00 +13°C° 0 mm 3 mps 760 mmHg 51%
    12:00 +13°C° 0 mm 3 mps 760 mmHg 51%
    13:00 +15°C° 0 mm 2 mps 760 mmHg 51%
    14:00 +15°C° 0 mm 2 mps 760 mmHg 56%
    15:00 +14°C° 0 mm 2 mps 760 mmHg 61%
    16:00 +13°C° 0 mm 2 mps 760 mmHg 66%
    17:00 +12°C° 0 mm 2 mps 761 mmHg 68%
    18:00 +10°C° 0 mm 2 mps 761 mmHg 70%
    19:00 +9°C° 0 mm 2 mps 762 mmHg 72%
    20:00 +9°C° 0 mm 2 mps 762 mmHg 70%
    21:00 +9°C° 0 mm 2 mps 763 mmHg 69%
    22:00 +8°C° 0 mm 2 mps 763 mmHg 67%
    23:00 +8°C° 0 mm 2 mps 763 mmHg 66%

    28 January, Sunday

    Time Temperature Precipitation Wind Pressure Humidity
    00:00 +8°C° 0 mm 2 mps 764 mmHg 65%
    01:00 +7°C° 0 mm 2 mps 764 mmHg 64%
    02:00 +7°C° 0 mm 2 mps 764 mmHg 63%
    03:00 +7°C° 0 mm 2 mps 764 mmHg 63%
    04:00 +7°C° 0 mm 2 mps 764 mmHg 63%
    05:00 +7°C° 0 mm 2 mps 764 mmHg 63%
    06:00 +7°C° 0 mm 2 mps 765 mmHg 63%
    07:00 +7°C° 0 mm 2 mps 765 mmHg 64%
    08:00 +9°C° 0 mm 2 mps 765 mmHg 59%
    09:00 +11°C° 0 mm 1 mps 766 mmHg 55%
    10:00 +13°C° 0 mm 1 mps 766 mmHg 50%
    11:00 +14°C° 0 mm 1 mps 766 mmHg 47%
    12:00 +15°C° 0 mm 1 mps 766 mmHg 45%
    13:00 +16°C° 0 mm 1 mps 766 mmHg 42%
    14:00 +16°C° 0 mm 2 mps 766 mmHg 47%
    15:00 +15°C° 0 mm 2 mps 766 mmHg 52%
    16:00 +14°C° 0 mm 2 mps 766 mmHg 57%
    17:00 +13°C° 0 mm 2 mps 766 mmHg 60%
    18:00 +11°C° 0 mm 3 mps 766 mmHg 62%
    19:00 +9°C° 0 mm 3 mps 767 mmHg 65%
    20:00 +9°C° 0 mm 3 mps 767 mmHg 64%
    21:00 +9°C° 0 mm 3 mps 767 mmHg 64%
    22:00 +8°C° 0 mm 3 mps 767 mmHg 63%
    23:00 +8°C° 0 mm 2 mps 767 mmHg 63%

    29 January, Monday

    Time Temperature Precipitation Wind Pressure Humidity
    00:00 +8°C° 0 mm 2 mps 767 mmHg 63%
    01:00 +7°C° 0 mm 2 mps 767 mmHg 62%
    02:00 +7°C° 0 mm 2 mps 767 mmHg 62%
    03:00 +7°C° 0 mm 2 mps 767 mmHg 61%
    04:00 +7°C° 0 mm 2 mps 766 mmHg 60%
    05:00 +7°C° 0 mm 2 mps 766 mmHg 59%
    06:00 +7°C° 0 mm 2 mps 766 mmHg 58%
    07:00 +7°C° 0 mm 2 mps 766 mmHg 57%
    08:00 +9°C° 0 mm 2 mps 766 mmHg 53%
    09:00 +12°C° 0 mm 2 mps 766 mmHg 48%
    10:00 +14°C° 0 mm 1 mps 766 mmHg 43%
    11:00 +15°C° 0 mm 1 mps 766 mmHg 41%
    12:00 +16°C° 0 mm 1 mps 766 mmHg 38%
    13:00 +18°C° 0 mm 1 mps 765 mmHg 35%
    14:00 +16°C° 0 mm 2 mps 765 mmHg 41%
    15:00 +15°C° 0 mm 2 mps 765 mmHg 46%
    16:00 +14°C° 0 mm 2 mps 764 mmHg 52%
    17:00 +13°C° 0 mm 2 mps 765 mmHg 54%
    18:00 +12°C° 0 mm 2 mps 765 mmHg 56%
    19:00 +9°C° 0 mm 2 mps 765 mmHg 58%
    20:00 +10°C° 0 mm 1 mps 765 mmHg 57%
    21:00 +10°C° 0 mm 1 mps 765 mmHg 57%
    22:00 +9°C° 0 mm 1 mps 765 mmHg 56%
    23:00 +9°C° 0 mm 1 mps 765 mmHg 56%
    Show more